Year,Month,Day,Hour,Minute,Value (Times are PST for temperature in C)
2013,02,13,00,00,4.90
2013,02,13,00,01,4.80
2013,02,13,00,02,4.80
2013,02,13,00,03,4.80
2013,02,13,00,04,4.80
2013,02,13,00,05,4.80
2013,02,13,00,06,4.70
2013,02,13,00,07,4.70
2013,02,13,00,08,4.70
2013,02,13,00,09,4.70
2013,02,13,00,10,4.70
2013,02,13,00,11,4.60
2013,02,13,00,12,4.60
2013,02,13,00,13,4.50
2013,02,13,00,14,4.50
2013,02,13,00,15,4.50
2013,02,13,00,16,4.40
2013,02,13,00,17,4.40
2013,02,13,00,18,4.30
2013,02,13,00,19,4.30
2013,02,13,00,20,4.30
2013,02,13,00,21,4.20
2013,02,13,00,22,4.20
2013,02,13,00,23,4.10
2013,02,13,00,24,4.10
2013,02,13,00,25,4.10
2013,02,13,00,26,4.10
2013,02,13,00,27,4.10
2013,02,13,00,28,4.20
2013,02,13,00,29,4.20
2013,02,13,00,30,4.10
2013,02,13,00,31,4.10
2013,02,13,00,32,4.10
2013,02,13,00,33,4.10
2013,02,13,00,34,4.10
2013,02,13,00,35,4.10
2013,02,13,00,36,4.00
2013,02,13,00,37,4.00
2013,02,13,00,38,4.00
2013,02,13,00,39,4.00
2013,02,13,00,40,3.90
2013,02,13,00,41,3.90
2013,02,13,00,42,3.90
2013,02,13,00,43,3.90
2013,02,13,00,44,3.80
2013,02,13,00,45,3.80
2013,02,13,00,46,3.80
2013,02,13,00,47,3.80
2013,02,13,00,48,3.70
2013,02,13,00,49,3.70
2013,02,13,00,50,3.60
2013,02,13,00,51,3.60
2013,02,13,00,52,3.50
2013,02,13,00,53,3.40
2013,02,13,00,54,3.40
2013,02,13,00,55,3.30
2013,02,13,00,56,3.30
2013,02,13,00,57,3.20
2013,02,13,00,58,3.20
2013,02,13,00,59,3.20
2013,02,13,01,00,3.20
2013,02,13,01,01,3.20
2013,02,13,01,02,3.10
2013,02,13,01,03,3.00
2013,02,13,01,04,3.00
2013,02,13,01,05,3.00
2013,02,13,01,06,3.00
2013,02,13,01,07,2.90
2013,02,13,01,08,2.80
2013,02,13,01,09,2.80
2013,02,13,01,10,2.70
2013,02,13,01,11,2.70
2013,02,13,01,12,2.60
2013,02,13,01,13,2.60
2013,02,13,01,14,2.50
2013,02,13,01,15,2.50
2013,02,13,01,16,2.40
2013,02,13,01,17,2.40
2013,02,13,01,18,2.40
2013,02,13,01,19,2.40
2013,02,13,01,20,2.30
2013,02,13,01,21,2.30
2013,02,13,01,22,2.30
2013,02,13,01,23,2.30
2013,02,13,01,24,2.30
2013,02,13,01,25,2.30
2013,02,13,01,26,2.20
2013,02,13,01,27,2.20
2013,02,13,01,28,2.10
2013,02,13,01,29,2.10
2013,02,13,01,30,2.10
2013,02,13,01,31,2.10
2013,02,13,01,32,2.10
2013,02,13,01,33,2.20
2013,02,13,01,34,2.20
2013,02,13,01,35,2.20
2013,02,13,01,36,2.20
2013,02,13,01,37,2.20
2013,02,13,01,38,2.20
2013,02,13,01,39,2.20
2013,02,13,01,40,2.20
2013,02,13,01,41,2.10
2013,02,13,01,42,2.10
2013,02,13,01,43,2.10
2013,02,13,01,44,2.00
2013,02,13,01,45,2.00
2013,02,13,01,46,2.00
2013,02,13,01,47,1.90
2013,02,13,01,48,1.90
2013,02,13,01,49,1.90
2013,02,13,01,50,1.90
2013,02,13,01,51,1.80
2013,02,13,01,52,1.80
2013,02,13,01,53,1.80
2013,02,13,01,54,1.80
2013,02,13,01,55,1.70
2013,02,13,01,56,1.70
2013,02,13,01,57,1.70
2013,02,13,01,58,1.70
2013,02,13,01,59,1.70
2013,02,13,02,00,1.60
2013,02,13,02,01,1.60
2013,02,13,02,02,1.60
2013,02,13,02,03,1.60
2013,02,13,02,04,1.60
2013,02,13,02,05,1.60
2013,02,13,02,06,1.60
2013,02,13,02,07,1.60
2013,02,13,02,08,1.60
2013,02,13,02,09,1.60
2013,02,13,02,10,1.60
2013,02,13,02,11,1.60
2013,02,13,02,12,1.60
2013,02,13,02,13,1.60
2013,02,13,02,14,1.70
2013,02,13,02,15,1.70
2013,02,13,02,16,1.70
2013,02,13,02,17,1.70
2013,02,13,02,18,1.70
2013,02,13,02,19,1.60
2013,02,13,02,20,1.70
2013,02,13,02,21,1.70
2013,02,13,02,22,1.70
2013,02,13,02,23,1.70
2013,02,13,02,24,1.60
2013,02,13,02,25,1.60
2013,02,13,02,26,1.60
2013,02,13,02,27,1.60
2013,02,13,02,28,1.60
2013,02,13,02,29,1.60
2013,02,13,02,30,1.60
2013,02,13,02,31,1.60
2013,02,13,02,32,1.60
2013,02,13,02,33,1.60
2013,02,13,02,34,1.60
2013,02,13,02,35,1.50
2013,02,13,02,36,1.50
2013,02,13,02,37,1.60
2013,02,13,02,38,1.60
2013,02,13,02,39,1.60
2013,02,13,02,40,1.60
2013,02,13,02,41,1.70
2013,02,13,02,42,1.60
2013,02,13,02,43,1.60
2013,02,13,02,44,1.60
2013,02,13,02,45,1.60
2013,02,13,02,46,1.60
2013,02,13,02,47,1.60
2013,02,13,02,48,1.60
2013,02,13,02,49,1.50
2013,02,13,02,50,1.50
2013,02,13,02,51,1.40
2013,02,13,02,52,1.30
2013,02,13,02,53,1.30
2013,02,13,02,54,1.30
2013,02,13,02,55,1.30
2013,02,13,02,56,1.30
2013,02,13,02,57,1.30
2013,02,13,02,58,1.30
2013,02,13,02,59,1.30
2013,02,13,03,00,1.30
2013,02,13,03,01,1.30
2013,02,13,03,02,1.30
2013,02,13,03,06,1.30
2013,02,13,03,07,1.20
2013,02,13,03,08,1.20
2013,02,13,03,09,1.20
2013,02,13,03,10,1.20
2013,02,13,03,11,1.10
2013,02,13,03,12,1.00
2013,02,13,03,13,1.00
2013,02,13,03,14,1.00
2013,02,13,03,15,1.00
2013,02,13,03,16,1.00
2013,02,13,03,17,0.90
2013,02,13,03,18,0.90
2013,02,13,03,19,0.90
2013,02,13,03,20,0.90
2013,02,13,03,21,0.80
2013,02,13,03,22,0.80
2013,02,13,03,23,0.80
2013,02,13,03,24,0.80
2013,02,13,03,25,0.80
2013,02,13,03,26,0.80
2013,02,13,03,27,0.80
2013,02,13,03,28,0.80
2013,02,13,03,29,0.80
2013,02,13,03,30,0.80
2013,02,13,03,31,0.80
2013,02,13,03,32,0.80
2013,02,13,03,33,0.80
2013,02,13,03,34,0.80
2013,02,13,03,35,0.80
2013,02,13,03,36,0.80
2013,02,13,03,37,0.80
2013,02,13,03,38,0.80
2013,02,13,03,39,0.80
2013,02,13,03,40,0.80
2013,02,13,03,41,0.80
2013,02,13,03,42,0.80
2013,02,13,03,43,0.80
2013,02,13,03,44,0.70
2013,02,13,03,45,0.70
2013,02,13,03,46,0.70
2013,02,13,03,47,0.70
2013,02,13,03,48,0.70
2013,02,13,03,49,0.70
2013,02,13,03,50,0.60
2013,02,13,03,51,0.70
2013,02,13,03,52,0.60
2013,02,13,03,53,0.60
2013,02,13,03,54,0.60
2013,02,13,03,55,0.60
2013,02,13,03,56,0.60
2013,02,13,03,57,0.50
2013,02,13,03,58,0.50
2013,02,13,03,59,0.40
2013,02,13,04,00,0.50
2013,02,13,04,01,0.50
2013,02,13,04,02,0.50
2013,02,13,04,03,0.40
2013,02,13,04,04,0.40
2013,02,13,04,05,0.40
2013,02,13,04,06,0.40
2013,02,13,04,07,0.40
2013,02,13,04,08,0.40
2013,02,13,04,09,0.40
2013,02,13,04,10,0.40
2013,02,13,04,11,0.40
2013,02,13,04,12,0.40
2013,02,13,04,13,0.40
2013,02,13,04,14,0.30
2013,02,13,04,15,0.30
2013,02,13,04,16,0.30
2013,02,13,04,17,0.30
2013,02,13,04,18,0.30
2013,02,13,04,19,0.30
2013,02,13,04,20,0.30
2013,02,13,04,21,0.30
2013,02,13,04,22,0.30
2013,02,13,04,23,0.30
2013,02,13,04,24,0.30
2013,02,13,04,25,0.30
2013,02,13,04,26,0.30
2013,02,13,04,27,0.30
2013,02,13,04,28,0.30
2013,02,13,04,29,0.30
2013,02,13,04,30,0.30
2013,02,13,04,31,0.30
2013,02,13,04,32,0.30
2013,02,13,04,33,0.30
2013,02,13,04,34,0.30
2013,02,13,04,35,0.30
2013,02,13,04,36,0.30
2013,02,13,04,37,0.30
2013,02,13,04,38,0.30
2013,02,13,04,39,0.30
2013,02,13,04,40,0.20
2013,02,13,04,41,0.20
2013,02,13,04,42,0.20
2013,02,13,04,43,0.20
2013,02,13,04,44,0.20
2013,02,13,04,45,0.20
2013,02,13,04,46,0.10
2013,02,13,04,47,0.10
2013,02,13,04,48,0.10
2013,02,13,04,49,0.10
2013,02,13,04,50,0.10
2013,02,13,04,51,0.10
2013,02,13,04,52,0.10
2013,02,13,04,53,0.10
2013,02,13,04,54,0.10
2013,02,13,04,55,0.10
2013,02,13,04,56,0.10
2013,02,13,04,57,0.10
2013,02,13,04,58,0.10
2013,02,13,04,59,0.10
2013,02,13,05,00,0.10
2013,02,13,05,01,0.10
2013,02,13,05,02,0.10
2013,02,13,05,03,0.10
2013,02,13,05,04,0.10
2013,02,13,05,05,0.10
2013,02,13,05,06,0.10
2013,02,13,05,07,0.10
2013,02,13,05,08,0.10
2013,02,13,05,09,0.10
2013,02,13,05,10,0.10
2013,02,13,05,11,0.10
2013,02,13,05,12,0.10
2013,02,13,05,13,0.00
2013,02,13,05,14,0.00
2013,02,13,05,15,0.10
2013,02,13,05,16,0.10
2013,02,13,05,17,0.10
2013,02,13,05,18,0.10
2013,02,13,05,19,0.20
2013,02,13,05,20,0.20
2013,02,13,05,21,0.20
2013,02,13,05,22,0.20
2013,02,13,05,23,0.20
2013,02,13,05,24,0.20
2013,02,13,05,25,0.20
2013,02,13,05,26,0.20
2013,02,13,05,27,0.20
2013,02,13,05,28,0.20
2013,02,13,05,29,0.20
2013,02,13,05,30,0.20
2013,02,13,05,31,0.20
2013,02,13,05,32,0.20
2013,02,13,05,33,0.10
2013,02,13,05,34,0.10
2013,02,13,05,35,0.00
2013,02,13,05,36,0.00
2013,02,13,05,37,-0.10
2013,02,13,05,38,-0.10
2013,02,13,05,39,-0.10
2013,02,13,05,40,-0.10
2013,02,13,05,41,-0.10
2013,02,13,05,42,-0.20
2013,02,13,05,43,-0.20
2013,02,13,05,44,-0.20
2013,02,13,05,45,-0.30
2013,02,13,05,46,-0.30
2013,02,13,05,47,-0.30
2013,02,13,05,48,-0.30
2013,02,13,05,49,-0.30
2013,02,13,05,50,-0.30
2013,02,13,05,51,-0.30
2013,02,13,05,52,-0.30
2013,02,13,05,53,-0.20
2013,02,13,05,54,-0.20
2013,02,13,05,55,-0.20
2013,02,13,05,56,-0.20
2013,02,13,05,57,-0.20
2013,02,13,05,58,-0.30
2013,02,13,05,59,-0.30
2013,02,13,06,00,-0.30
2013,02,13,06,01,-0.30
2013,02,13,06,02,-0.30
2013,02,13,06,03,-0.30
2013,02,13,06,04,-0.30
2013,02,13,06,05,-0.30
2013,02,13,06,06,-0.30
2013,02,13,06,07,-0.30
2013,02,13,06,08,-0.30
2013,02,13,06,09,-0.40
2013,02,13,06,10,-0.40
2013,02,13,06,11,-0.40
2013,02,13,06,12,-0.40
2013,02,13,06,13,-0.40
2013,02,13,06,14,-0.40
2013,02,13,06,15,-0.40
2013,02,13,06,16,-0.40
2013,02,13,06,17,-0.40
2013,02,13,06,18,-0.40
2013,02,13,06,19,-0.30
2013,02,13,06,20,-0.30
2013,02,13,06,21,-0.30
2013,02,13,06,22,-0.30
2013,02,13,06,23,-0.30
2013,02,13,06,24,-0.40
2013,02,13,06,25,-0.40
2013,02,13,06,26,-0.40
2013,02,13,06,27,-0.50
2013,02,13,06,28,-0.50
2013,02,13,06,29,-0.50
2013,02,13,06,30,-0.40
2013,02,13,06,31,-0.40
2013,02,13,06,32,-0.50
2013,02,13,06,33,-0.50
2013,02,13,06,34,-0.50
2013,02,13,06,35,-0.50
2013,02,13,06,36,-0.40
2013,02,13,06,37,-0.40
2013,02,13,06,38,-0.40
2013,02,13,06,39,-0.30
2013,02,13,06,40,-0.30
2013,02,13,06,41,-0.30
2013,02,13,06,42,-0.20
2013,02,13,06,43,-0.20
2013,02,13,06,44,-0.20
2013,02,13,06,45,-0.20
2013,02,13,06,46,-0.20
2013,02,13,06,47,-0.30
2013,02,13,06,48,-0.30
2013,02,13,06,49,-0.30
2013,02,13,06,50,-0.30
2013,02,13,06,51,-0.30
2013,02,13,06,52,-0.40
2013,02,13,06,53,-0.40
2013,02,13,06,54,-0.50
2013,02,13,06,55,-0.50
2013,02,13,06,56,-0.60
2013,02,13,06,57,-0.60
2013,02,13,06,58,-0.60
2013,02,13,06,59,-0.60
2013,02,13,07,00,-0.60
2013,02,13,07,01,-0.60
2013,02,13,07,02,-0.60
2013,02,13,07,03,-0.60
2013,02,13,07,04,-0.60
2013,02,13,07,05,-0.60
2013,02,13,07,06,-0.60
2013,02,13,07,07,-0.60
2013,02,13,07,08,-0.60
2013,02,13,07,09,-0.60
2013,02,13,07,10,-0.60
2013,02,13,07,11,-0.60
2013,02,13,07,12,-0.60
2013,02,13,07,13,-0.50
2013,02,13,07,14,-0.50
2013,02,13,07,15,-0.50
2013,02,13,07,16,-0.50
2013,02,13,07,17,-0.40
2013,02,13,07,18,-0.40
2013,02,13,07,19,-0.40
2013,02,13,07,20,-0.40
2013,02,13,07,21,-0.40
2013,02,13,07,22,-0.40
2013,02,13,07,23,-0.40
2013,02,13,07,24,-0.30
2013,02,13,07,25,-0.30
2013,02,13,07,26,-0.30
2013,02,13,07,27,-0.30
2013,02,13,07,28,-0.30
2013,02,13,07,29,-0.30
2013,02,13,07,30,-0.30
2013,02,13,07,31,-0.30
2013,02,13,07,32,-0.30
2013,02,13,07,33,-0.30
2013,02,13,07,34,-0.30
2013,02,13,07,35,-0.30
2013,02,13,07,36,-0.40
2013,02,13,07,37,-0.40
2013,02,13,07,38,-0.40
2013,02,13,07,39,-0.40
2013,02,13,07,40,-0.30
2013,02,13,07,41,-0.30
2013,02,13,07,42,-0.30
2013,02,13,07,43,-0.30
2013,02,13,07,44,-0.30
2013,02,13,07,45,-0.30
2013,02,13,07,46,-0.30
2013,02,13,07,47,-0.30
2013,02,13,07,48,-0.30
2013,02,13,07,49,-0.30
2013,02,13,07,50,-0.30
2013,02,13,07,51,-0.30
2013,02,13,07,52,-0.30
2013,02,13,07,53,-0.20
2013,02,13,07,54,-0.20
2013,02,13,07,55,-0.20
2013,02,13,07,56,-0.20
2013,02,13,07,57,-0.10
2013,02,13,07,58,-0.10
2013,02,13,07,59,-0.10
2013,02,13,08,00,-0.10
2013,02,13,08,01,-0.10
2013,02,13,08,02,-0.10
2013,02,13,08,03,-0.10
2013,02,13,08,04,0.00
2013,02,13,08,05,0.00
2013,02,13,08,06,0.00
2013,02,13,08,07,0.00
2013,02,13,08,08,0.10
2013,02,13,08,09,0.10
2013,02,13,08,10,0.10
2013,02,13,08,11,0.10
2013,02,13,08,12,0.10
2013,02,13,08,13,0.10
2013,02,13,08,14,0.10
2013,02,13,08,15,0.10
2013,02,13,08,16,0.10
2013,02,13,08,17,0.10
2013,02,13,08,18,0.10
2013,02,13,08,19,0.10
2013,02,13,08,20,0.10
2013,02,13,08,21,0.10
2013,02,13,08,22,0.20
2013,02,13,08,23,0.20
2013,02,13,08,24,0.20
2013,02,13,08,25,0.30
2013,02,13,08,26,0.40
2013,02,13,08,27,0.40
2013,02,13,08,28,0.50
2013,02,13,08,29,0.60
2013,02,13,08,30,0.60
2013,02,13,08,31,0.70
2013,02,13,08,32,0.70
2013,02,13,08,33,0.80
2013,02,13,08,34,0.80
2013,02,13,08,35,0.80
2013,02,13,08,36,0.80
2013,02,13,08,37,0.80
2013,02,13,08,38,0.90
2013,02,13,08,39,0.90
2013,02,13,08,40,0.80
2013,02,13,08,41,0.80
2013,02,13,08,42,0.80
2013,02,13,08,43,0.80
2013,02,13,08,44,0.80
2013,02,13,08,45,0.90
2013,02,13,08,46,0.90
2013,02,13,08,47,0.90
2013,02,13,08,48,1.00
2013,02,13,08,49,1.00
2013,02,13,08,50,1.10
2013,02,13,08,51,1.10
2013,02,13,08,52,1.10
2013,02,13,08,53,1.10
2013,02,13,08,54,1.10
2013,02,13,08,55,1.10
2013,02,13,08,56,1.20
2013,02,13,08,57,1.20
2013,02,13,08,58,1.20
2013,02,13,08,59,1.20
2013,02,13,09,00,1.20
2013,02,13,09,01,1.30
2013,02,13,09,02,1.30
2013,02,13,09,03,1.30
2013,02,13,09,04,1.30
2013,02,13,09,05,1.30
2013,02,13,09,06,1.40
2013,02,13,09,07,1.40
2013,02,13,09,08,1.50
2013,02,13,09,09,1.60
2013,02,13,09,10,1.60
2013,02,13,09,11,1.70
2013,02,13,09,12,1.70
2013,02,13,09,13,1.80
2013,02,13,09,14,1.80
2013,02,13,09,15,1.80
2013,02,13,09,16,1.80
2013,02,13,09,17,1.90
2013,02,13,09,18,1.90
2013,02,13,09,19,1.90
2013,02,13,09,20,2.00
2013,02,13,09,21,2.00
2013,02,13,09,22,2.10
2013,02,13,09,23,2.10
2013,02,13,09,24,2.20
2013,02,13,09,25,2.20
2013,02,13,09,26,2.30
2013,02,13,09,27,2.40
2013,02,13,09,28,2.40
2013,02,13,09,29,2.50
2013,02,13,09,30,2.50
2013,02,13,09,31,2.60
2013,02,13,09,32,2.60
2013,02,13,09,33,2.60
2013,02,13,09,34,2.60
2013,02,13,09,35,2.70
2013,02,13,09,36,2.70
2013,02,13,09,37,2.70
2013,02,13,09,38,2.80
2013,02,13,09,39,2.80
2013,02,13,09,40,2.90
2013,02,13,09,41,2.90
2013,02,13,09,42,3.00
2013,02,13,09,43,3.00
2013,02,13,09,44,3.10
2013,02,13,09,45,3.10
2013,02,13,09,46,3.20
2013,02,13,09,47,3.20
2013,02,13,09,48,3.30
2013,02,13,09,49,3.30
2013,02,13,09,50,3.40
2013,02,13,09,51,3.40
2013,02,13,09,52,3.50
2013,02,13,09,53,3.50
2013,02,13,09,54,3.60
2013,02,13,09,55,3.70
2013,02,13,09,56,3.80
2013,02,13,09,57,3.80
2013,02,13,09,58,3.90
2013,02,13,09,59,4.00
2013,02,13,10,00,4.00
2013,02,13,10,01,4.10
2013,02,13,10,02,4.10
2013,02,13,10,03,4.20
2013,02,13,10,04,4.20
2013,02,13,10,05,4.30
2013,02,13,10,06,4.30
2013,02,13,10,07,4.30
2013,02,13,10,08,4.30
2013,02,13,10,09,4.40
2013,02,13,10,10,4.40
2013,02,13,10,11,4.40
2013,02,13,10,12,4.50
2013,02,13,10,13,4.50
2013,02,13,10,14,4.50
2013,02,13,10,15,4.60
2013,02,13,10,16,4.60
2013,02,13,10,17,4.60
2013,02,13,10,18,4.60
2013,02,13,10,19,4.70
2013,02,13,10,20,4.70
2013,02,13,10,21,4.70
2013,02,13,10,22,4.80
2013,02,13,10,23,4.80
2013,02,13,10,24,4.90
2013,02,13,10,25,5.00
2013,02,13,10,26,5.00
2013,02,13,10,27,5.10
2013,02,13,10,28,5.10
2013,02,13,10,29,5.20
2013,02,13,10,30,5.20
2013,02,13,10,31,5.30
2013,02,13,10,32,5.40
2013,02,13,10,33,5.50
2013,02,13,10,34,5.50
2013,02,13,10,35,5.60
2013,02,13,10,36,5.70
2013,02,13,10,37,5.70
2013,02,13,10,38,5.80
2013,02,13,10,39,5.80
2013,02,13,10,40,5.90
2013,02,13,10,41,5.90
2013,02,13,10,42,5.90
2013,02,13,10,43,6.00
2013,02,13,10,44,6.00
2013,02,13,10,45,6.10
2013,02,13,10,46,6.10
2013,02,13,10,47,6.20
2013,02,13,10,48,6.20
2013,02,13,10,49,6.20
2013,02,13,10,50,6.30
2013,02,13,10,51,6.30
2013,02,13,10,52,6.30
2013,02,13,10,53,6.40
2013,02,13,10,54,6.40
2013,02,13,10,55,6.40
2013,02,13,10,56,6.40
2013,02,13,10,57,6.50
2013,02,13,10,58,6.50
2013,02,13,10,59,6.60
2013,02,13,11,00,6.60
2013,02,13,11,01,6.70
2013,02,13,11,02,6.70
2013,02,13,11,03,6.80
2013,02,13,11,04,6.80
2013,02,13,11,05,6.80
2013,02,13,11,06,6.80
2013,02,13,11,07,6.90
2013,02,13,11,08,6.90
2013,02,13,11,09,7.00
2013,02,13,11,10,7.00
2013,02,13,11,11,7.10
2013,02,13,11,12,7.10
2013,02,13,11,13,7.20
2013,02,13,11,14,7.20
2013,02,13,11,15,7.20
2013,02,13,11,16,7.30
2013,02,13,11,17,7.30
2013,02,13,11,18,7.30
2013,02,13,11,19,7.40
2013,02,13,11,20,7.40
2013,02,13,11,21,7.50
2013,02,13,11,22,7.60
2013,02,13,11,23,7.60
2013,02,13,11,24,7.70
2013,02,13,11,25,7.70
2013,02,13,11,26,7.80
2013,02,13,11,27,7.80
2013,02,13,11,28,7.90
2013,02,13,11,29,7.90
2013,02,13,11,30,8.00
2013,02,13,11,31,8.00
2013,02,13,11,32,8.10
2013,02,13,11,33,8.10
2013,02,13,11,34,8.10
2013,02,13,11,35,8.20
2013,02,13,11,36,8.20
2013,02,13,11,37,8.20
2013,02,13,11,38,8.20
2013,02,13,11,39,8.30
2013,02,13,11,40,8.20
2013,02,13,11,41,8.30
2013,02,13,11,42,8.30
2013,02,13,11,43,8.30
2013,02,13,11,44,8.30
2013,02,13,11,45,8.30
2013,02,13,11,46,8.30
2013,02,13,11,47,8.30
2013,02,13,11,48,8.30
2013,02,13,11,49,8.30
2013,02,13,11,50,8.30
2013,02,13,11,51,8.30
2013,02,13,11,52,8.30
2013,02,13,11,53,8.40
2013,02,13,11,54,8.40
2013,02,13,11,55,8.40
2013,02,13,11,56,8.40
2013,02,13,11,57,8.50
2013,02,13,11,58,8.50
2013,02,13,11,59,8.50
2013,02,13,12,00,8.60
2013,02,13,12,01,8.60
2013,02,13,12,02,8.60
2013,02,13,12,03,8.70
2013,02,13,12,04,8.70
2013,02,13,12,05,8.70
2013,02,13,12,06,8.70
2013,02,13,12,07,8.70
2013,02,13,12,08,8.70
2013,02,13,12,09,8.80
2013,02,13,12,10,8.80
2013,02,13,12,11,8.80
2013,02,13,12,12,8.80
2013,02,13,12,13,8.80
2013,02,13,12,14,8.90
2013,02,13,12,15,8.90
2013,02,13,12,16,8.90
2013,02,13,12,17,8.90
2013,02,13,12,18,8.90
2013,02,13,12,19,8.90
2013,02,13,12,20,8.90
2013,02,13,12,21,8.90
2013,02,13,12,22,9.00
2013,02,13,12,23,9.00
2013,02,13,12,24,9.00
2013,02,13,12,25,9.00
2013,02,13,12,26,9.00
2013,02,13,12,27,9.00
2013,02,13,12,28,9.00
2013,02,13,12,29,9.00
2013,02,13,12,30,9.00
2013,02,13,12,31,9.00
2013,02,13,12,32,9.10
2013,02,13,12,33,9.10
2013,02,13,12,34,9.10
2013,02,13,12,35,9.20
2013,02,13,12,36,9.20
2013,02,13,12,37,9.20
2013,02,13,12,38,9.20
2013,02,13,12,39,9.30
2013,02,13,12,40,9.30
2013,02,13,12,41,9.30
2013,02,13,12,42,9.30
2013,02,13,12,43,9.30
2013,02,13,12,44,9.40
2013,02,13,12,45,9.40
2013,02,13,12,46,9.40
2013,02,13,12,47,9.40
2013,02,13,12,48,9.40
2013,02,13,12,49,9.30
2013,02,13,12,50,9.30
2013,02,13,12,51,9.30
2013,02,13,12,52,9.20
2013,02,13,12,53,9.20
2013,02,13,12,54,9.20
2013,02,13,12,55,9.20
2013,02,13,12,56,9.20
2013,02,13,12,57,9.30
2013,02,13,12,58,9.30
2013,02,13,12,59,9.30
2013,02,13,13,00,9.30
2013,02,13,13,01,9.30
2013,02,13,13,02,9.30
2013,02,13,13,03,9.30
2013,02,13,13,04,9.30
2013,02,13,13,05,9.30
2013,02,13,13,06,9.30
2013,02,13,13,07,9.30
2013,02,13,13,08,9.30
2013,02,13,13,09,9.30
2013,02,13,13,10,9.30
2013,02,13,13,11,9.30
2013,02,13,13,12,9.30
2013,02,13,13,13,9.30
2013,02,13,13,14,9.30
2013,02,13,13,15,9.30
2013,02,13,13,16,9.30
2013,02,13,13,17,9.30
2013,02,13,13,18,9.30
2013,02,13,13,19,9.30
2013,02,13,13,20,9.20
2013,02,13,13,21,9.10
2013,02,13,13,22,9.10
2013,02,13,13,23,9.00
2013,02,13,13,24,9.00
2013,02,13,13,25,8.90
2013,02,13,13,26,8.90
2013,02,13,13,27,8.90
2013,02,13,13,28,8.90
2013,02,13,13,29,8.80
2013,02,13,13,30,8.80
2013,02,13,13,31,8.80
2013,02,13,13,32,8.80
2013,02,13,13,33,8.70
2013,02,13,13,34,8.70
2013,02,13,13,35,8.70
2013,02,13,13,36,8.70
2013,02,13,13,37,8.70
2013,02,13,13,38,8.70
2013,02,13,13,39,8.80
2013,02,13,13,40,8.80
2013,02,13,13,41,8.80
2013,02,13,13,42,8.90
2013,02,13,13,43,8.90
2013,02,13,13,44,8.90
2013,02,13,13,45,8.90
2013,02,13,13,46,8.90
2013,02,13,13,47,8.90
2013,02,13,13,48,9.00
2013,02,13,13,49,8.90
2013,02,13,13,50,8.90
2013,02,13,13,51,8.90
2013,02,13,13,52,8.90
2013,02,13,13,53,9.00
2013,02,13,13,54,9.00
2013,02,13,13,55,9.00
2013,02,13,13,56,9.10
2013,02,13,13,57,9.10
2013,02,13,13,58,9.10
2013,02,13,13,59,9.00
2013,02,13,14,00,9.00
2013,02,13,14,01,8.90
2013,02,13,14,02,8.90
2013,02,13,14,03,8.80
2013,02,13,14,04,8.80
2013,02,13,14,05,8.80
2013,02,13,14,06,8.80
2013,02,13,14,07,8.90
2013,02,13,14,08,8.90
2013,02,13,14,09,8.90
2013,02,13,14,10,8.90
2013,02,13,14,11,9.00
2013,02,13,14,12,9.10
2013,02,13,14,13,9.10
2013,02,13,14,14,9.20
2013,02,13,14,15,9.20
2013,02,13,14,16,9.20
2013,02,13,14,17,9.30
2013,02,13,14,18,9.30
2013,02,13,14,19,9.30
2013,02,13,14,20,9.30
2013,02,13,14,21,9.30
2013,02,13,14,22,9.40
2013,02,13,14,23,9.40
2013,02,13,14,24,9.40
2013,02,13,14,25,9.40
2013,02,13,14,26,9.40
2013,02,13,14,27,9.30
2013,02,13,14,28,9.30
2013,02,13,14,29,9.30
2013,02,13,14,30,9.30
2013,02,13,14,31,9.30
2013,02,13,14,32,9.30
2013,02,13,14,33,9.30
2013,02,13,14,34,9.30
2013,02,13,14,35,9.30
2013,02,13,14,36,9.30
2013,02,13,14,37,9.30
2013,02,13,14,38,9.30
2013,02,13,14,39,9.20
2013,02,13,14,40,9.20
2013,02,13,14,41,9.10
2013,02,13,14,42,9.10
2013,02,13,14,43,9.10
2013,02,13,14,44,9.10
2013,02,13,14,45,9.00
2013,02,13,14,46,9.00
2013,02,13,14,47,9.00
2013,02,13,14,48,8.90
2013,02,13,14,49,8.90
2013,02,13,14,50,8.90
2013,02,13,14,51,8.80
2013,02,13,14,52,8.80
2013,02,13,14,53,8.80
2013,02,13,14,54,8.80
2013,02,13,14,55,8.80
2013,02,13,14,56,8.80
2013,02,13,14,57,8.80
2013,02,13,14,58,8.70
2013,02,13,14,59,8.70
2013,02,13,15,00,8.70
2013,02,13,15,01,8.60
2013,02,13,15,02,8.60
2013,02,13,15,03,8.60
2013,02,13,15,04,8.50
2013,02,13,15,05,8.50
2013,02,13,15,06,8.50
2013,02,13,15,07,8.50
2013,02,13,15,08,8.40
2013,02,13,15,09,8.40
2013,02,13,15,10,8.40
2013,02,13,15,11,8.30
2013,02,13,15,12,8.30
2013,02,13,15,13,8.30
2013,02,13,15,14,8.30
2013,02,13,15,15,8.30
2013,02,13,15,16,8.20
2013,02,13,15,17,8.20
2013,02,13,15,18,8.20
2013,02,13,15,19,8.20
2013,02,13,15,20,8.20
2013,02,13,15,21,8.30
2013,02,13,15,22,8.30
2013,02,13,15,23,8.30
2013,02,13,15,24,8.30
2013,02,13,15,25,8.30
2013,02,13,15,26,8.40
2013,02,13,15,27,8.40
2013,02,13,15,28,8.50
2013,02,13,15,29,8.50
2013,02,13,15,30,8.50
2013,02,13,15,31,8.60
2013,02,13,15,32,8.60
2013,02,13,15,33,8.60
2013,02,13,15,34,8.60
2013,02,13,15,35,8.70
2013,02,13,15,36,8.70
2013,02,13,15,37,8.70
2013,02,13,15,38,8.70
2013,02,13,15,39,8.70
2013,02,13,15,40,8.70
2013,02,13,15,41,8.70
2013,02,13,15,42,8.70
2013,02,13,15,43,8.70
2013,02,13,15,44,8.70
2013,02,13,15,45,8.70
2013,02,13,15,46,8.70
2013,02,13,15,47,8.70
2013,02,13,15,48,8.70
2013,02,13,15,49,8.70
2013,02,13,15,50,8.70
2013,02,13,15,51,8.70
2013,02,13,15,52,8.70
2013,02,13,15,53,8.70
2013,02,13,15,54,8.70
2013,02,13,15,55,8.70
2013,02,13,15,56,8.70
2013,02,13,15,57,8.70
2013,02,13,15,58,8.70
2013,02,13,15,59,8.70
2013,02,13,16,00,8.70
2013,02,13,16,01,8.70
2013,02,13,16,02,8.60
2013,02,13,16,03,8.60
2013,02,13,16,04,8.60
2013,02,13,16,05,8.70
2013,02,13,16,06,8.70
2013,02,13,16,07,8.70
2013,02,13,16,08,8.70
2013,02,13,16,09,8.70
2013,02,13,16,10,8.70
2013,02,13,16,11,8.70
2013,02,13,16,12,8.70
2013,02,13,16,13,8.70
2013,02,13,16,14,8.60
2013,02,13,16,15,8.60
2013,02,13,16,16,8.60
2013,02,13,16,17,8.50
2013,02,13,16,18,8.50
2013,02,13,16,19,8.50
2013,02,13,16,20,8.50
2013,02,13,16,21,8.40
2013,02,13,16,22,8.40
2013,02,13,16,23,8.40
2013,02,13,16,24,8.40
2013,02,13,16,25,8.40
2013,02,13,16,26,8.40
2013,02,13,16,27,8.40
2013,02,13,16,28,8.40
2013,02,13,16,29,8.40
2013,02,13,16,30,8.40
2013,02,13,16,31,8.50
2013,02,13,16,32,8.50
2013,02,13,16,33,8.50
2013,02,13,16,34,8.50
2013,02,13,16,35,8.40
2013,02,13,16,36,8.40
2013,02,13,16,37,8.40
2013,02,13,16,38,8.40
2013,02,13,16,39,8.40
2013,02,13,16,40,8.40
2013,02,13,16,41,8.40
2013,02,13,16,42,8.40
2013,02,13,16,43,8.40
2013,02,13,16,44,8.40
2013,02,13,16,45,8.40
2013,02,13,16,46,8.30
2013,02,13,16,47,8.30
2013,02,13,16,48,8.30
2013,02,13,16,49,8.30
2013,02,13,16,50,8.20
2013,02,13,16,51,8.20
2013,02,13,16,52,8.20
2013,02,13,16,53,8.20
2013,02,13,16,54,8.20
2013,02,13,16,55,8.20
2013,02,13,16,56,8.20
2013,02,13,16,57,8.20
2013,02,13,16,58,8.20
2013,02,13,16,59,8.20
2013,02,13,17,00,8.20
2013,02,13,17,01,8.20
2013,02,13,17,02,8.20
2013,02,13,17,03,8.20
2013,02,13,17,04,8.10
2013,02,13,17,05,8.10
2013,02,13,17,06,8.10
2013,02,13,17,07,8.10
2013,02,13,17,08,8.10
2013,02,13,17,09,8.00
2013,02,13,17,10,8.00
2013,02,13,17,11,8.00
2013,02,13,17,12,7.90
2013,02,13,17,13,7.90
2013,02,13,17,14,7.90
2013,02,13,17,15,7.80
2013,02,13,17,16,7.80
2013,02,13,17,17,7.80
2013,02,13,17,18,7.80
2013,02,13,17,19,7.70
2013,02,13,17,20,7.70
2013,02,13,17,21,7.70
2013,02,13,17,22,7.70
2013,02,13,17,23,7.60
2013,02,13,17,24,7.60
2013,02,13,17,25,7.60
2013,02,13,17,26,7.50
2013,02,13,17,27,7.50
2013,02,13,17,28,7.40
2013,02,13,17,29,7.40
2013,02,13,17,30,7.30
2013,02,13,17,31,7.30
2013,02,13,17,32,7.30
2013,02,13,17,33,7.20
2013,02,13,17,34,7.20
2013,02,13,17,35,7.20
2013,02,13,17,36,7.20
2013,02,13,17,37,7.20
2013,02,13,17,38,7.20
2013,02,13,17,39,7.10
2013,02,13,17,40,7.10
2013,02,13,17,41,7.00
2013,02,13,17,42,7.00
2013,02,13,17,43,6.90
2013,02,13,17,44,6.90
2013,02,13,17,45,6.90
2013,02,13,17,46,6.90
2013,02,13,17,47,6.90
2013,02,13,17,48,6.90
2013,02,13,17,49,6.90
2013,02,13,17,50,6.90
2013,02,13,17,51,6.90
2013,02,13,17,52,6.80
2013,02,13,17,53,6.80
2013,02,13,17,54,6.80
2013,02,13,17,55,6.80
2013,02,13,17,56,6.70
2013,02,13,17,57,6.70
2013,02,13,17,58,6.70
2013,02,13,17,59,6.60
2013,02,13,18,00,6.60
2013,02,13,18,01,6.60
2013,02,13,18,02,6.60
2013,02,13,18,03,6.60